This is the latest recevied weather packets stored in our database for station/object DB0SMU-12. If no packets are shown the sender has not sent any weather packets the latest 10 day(s).
| Time | Temp. | Humidity | Pressure | Rain* | Wind** | Luminosity | Snow |
|---|---|---|---|---|---|---|---|
| 1787441316 | 12.22° C | 94% | 1024 hPa | 0 mm | - | - | - |
| 1787441135 | 12.22° C | 92% | 1024 hPa | 0 mm | - | - | - |
| 1787440954 | 12.22° C | 93% | 1023.9 hPa | 0 mm | - | - | - |
| 1787440774 | 12.78° C | 93% | 1023.9 hPa | 0 mm | - | - | - |
| 1787440593 | 12.78° C | 93% | 1024 hPa | 0 mm | - | - | - |
| 1787440411 | 12.78° C | 93% | 1024 hPa | 0 mm | - | - | - |
| 1787440230 | 12.78° C | 93% | 1024.1 hPa | 0 mm | - | - | - |
| 1787440049 | 12.78° C | 93% | 1024.1 hPa | 0 mm | - | - | - |
| 1787439868 | 12.78° C | 92% | 1024.1 hPa | 0 mm | - | - | - |
| 1787439687 | 12.78° C | 92% | 1024.1 hPa | 0 mm | - | - | - |
| 1787439506 | 12.78° C | 92% | 1024.1 hPa | 0 mm | - | - | - |
| 1787439325 | 12.78° C | 93% | 1024 hPa | 0 mm | - | - | - |
| 1787439144 | 12.78° C | 93% | 1024.1 hPa | 0 mm | - | - | - |
| 1787438963 | 12.78° C | 92% | 1024 hPa | 0 mm | - | - | - |
| 1787438782 | 12.78° C | 93% | 1024.1 hPa | 0 mm | - | - | - |
| 1787438601 | 12.78° C | 92% | 1024.1 hPa | 0 mm | - | - | - |
| 1787438420 | 13.33° C | 92% | 1024.1 hPa | 0 mm | - | - | - |
| 1787438239 | 13.33° C | 91% | 1024.2 hPa | 0 mm | - | - | - |
| 1787438058 | 13.33° C | 90% | 1024.2 hPa | 0 mm | - | - | - |
| 1787437877 | 13.33° C | 91% | 1024 hPa | 0 mm | - | - | - |
| 1787437696 | 13.33° C | 94% | 1024.1 hPa | 0 mm | - | - | - |
| 1787437515 | 13.33° C | 97% | 1024.1 hPa | 0 mm | - | - | - |
| 1787437334 | 13.33° C | 93% | 1024 hPa | 0 mm | - | - | - |
| 1787437153 | 13.33° C | 92% | 1024.1 hPa | 0 mm | - | - | - |
| 1787436972 | 13.33° C | 91% | 1024.1 hPa | 0 mm | - | - | - |
* Rain latest hour (hover to see other rain measurements)
** Current wind speed in m/s (hover to see current wind gust speed)